TimeCDT,TemperatureF,Dew PointF,Humidity,Sea Level PressureIn,VisibilityMPH,Wind Direction,Wind SpeedMPH,Gust SpeedMPH,PrecipitationIn,Events,Conditions,WindDirDegrees,DateUTC
12:15 AM,69.8,69.8,100,29.86,5.0,SE,3.5,-,N/A,,Mostly Cloudy,130,2013-05-18 05:15:00
12:35 AM,69.8,69.8,100,29.85,5.0,SE,4.6,-,N/A,,Overcast,130,2013-05-18 05:35:00
12:55 AM,69.8,69.8,100,29.85,5.0,ESE,3.5,-,N/A,,Overcast,120,2013-05-18 05:55:00
1:15 AM,69.8,69.8,100,29.84,5.0,SE,3.5,-,N/A,,Overcast,140,2013-05-18 06:15:00
1:35 AM,69.8,69.8,100,29.83,7.0,SE,6.9,-,N/A,,Scattered Clouds,140,2013-05-18 06:35:00
1:55 AM,69.8,69.8,100,29.83,5.0,SSE,6.9,-,N/A,,Clear,160,2013-05-18 06:55:00
2:15 AM,69.8,69.8,100,29.83,5.0,SE,6.9,-,N/A,,Clear,130,2013-05-18 07:15:00
2:35 AM,69.8,69.8,100,29.83,5.0,SE,6.9,-,N/A,,Clear,140,2013-05-18 07:35:00
2:55 AM,69.8,69.8,100,29.83,5.0,SSE,5.8,-,N/A,,Clear,150,2013-05-18 07:55:00
3:15 AM,69.8,69.8,100,29.83,5.0,SE,6.9,-,N/A,,Clear,130,2013-05-18 08:15:00
3:35 AM,69.8,69.8,100,29.83,5.0,SSE,5.8,-,N/A,,Clear,150,2013-05-18 08:35:00
3:55 AM,69.8,69.8,100,29.82,5.0,SE,6.9,-,N/A,,Scattered Clouds,140,2013-05-18 08:55:00
4:15 AM,69.8,69.8,100,29.83,4.0,SE,5.8,-,N/A,,Mostly Cloudy,130,2013-05-18 09:15:00
4:35 AM,69.8,69.8,100,29.83,5.0,SE,5.8,-,N/A,,Overcast,140,2013-05-18 09:35:00
4:55 AM,69.8,69.8,100,29.83,5.0,SE,4.6,-,N/A,,Overcast,130,2013-05-18 09:55:00
5:15 AM,69.8,69.8,100,29.82,4.0,ESE,5.8,-,N/A,,Overcast,120,2013-05-18 10:15:00
5:35 AM,69.8,69.8,100,29.82,4.0,SE,5.8,-,N/A,,Overcast,130,2013-05-18 10:35:00
5:55 AM,69.8,69.8,100,29.82,4.0,SE,4.6,-,N/A,,Overcast,140,2013-05-18 10:55:00
6:15 AM,69.8,69.8,100,29.82,4.0,SE,5.8,-,N/A,,Overcast,130,2013-05-18 11:15:00
6:35 AM,69.8,69.8,100,29.83,3.0,SE,4.6,-,N/A,,Overcast,140,2013-05-18 11:35:00
6:55 AM,69.8,69.8,100,29.83,3.0,SE,5.8,-,N/A,,Overcast,140,2013-05-18 11:55:00
7:15 AM,69.8,69.8,100,29.83,2.5,SSE,5.8,-,N/A,,Overcast,150,2013-05-18 12:15:00
7:35 AM,69.8,69.8,100,29.83,2.5,SSE,5.8,-,N/A,,Overcast,150,2013-05-18 12:35:00
7:55 AM,71.6,71.6,100,29.83,2.5,SSE,8.1,-,N/A,,Overcast,160,2013-05-18 12:55:00
8:15 AM,71.6,71.6,100,29.84,2.5,SE,5.8,-,N/A,,Overcast,140,2013-05-18 13:15:00
8:35 AM,71.6,71.6,100,29.85,2.5,SSE,4.6,-,N/A,,Overcast,160,2013-05-18 13:35:00
8:55 AM,71.6,71.6,100,29.85,3.0,ESE,4.6,-,N/A,,Overcast,120,2013-05-18 13:55:00
9:15 AM,71.6,71.6,100,29.85,3.0,SSE,4.6,-,N/A,,Overcast,160,2013-05-18 14:15:00
9:35 AM,71.6,71.6,100,29.85,3.0,SSE,6.9,-,N/A,,Overcast,160,2013-05-18 14:35:00
9:55 AM,73.4,71.6,94,29.85,3.0,South,5.8,-,N/A,,Overcast,170,2013-05-18 14:55:00
10:15 AM,73.4,73.4,100,29.85,4.0,SSE,6.9,-,N/A,,Overcast,160,2013-05-18 15:15:00
10:35 AM,75.2,73.4,94,29.85,4.0,South,8.1,-,N/A,,Mostly Cloudy,180,2013-05-18 15:35:00
10:55 AM,77.0,73.4,89,29.85,4.0,South,11.5,-,N/A,,Scattered Clouds,190,2013-05-18 15:55:00
11:15 AM,77.0,73.4,89,29.85,4.0,SSW,9.2,-,N/A,,Scattered Clouds,200,2013-05-18 16:15:00
11:35 AM,80.6,75.2,84,29.85,5.0,SSW,11.5,-,N/A,,Haze,200,2013-05-18 16:35:00
11:55 AM,78.8,73.4,83,29.83,5.0,SSW,9.2,16.1,N/A,,Clear,200,2013-05-18 16:55:00
12:15 PM,80.6,75.2,84,29.82,5.0,SSE,9.2,-,N/A,,Haze,160,2013-05-18 17:15:00
12:35 PM,80.6,75.2,84,29.80,5.0,SSE,9.2,-,N/A,,Haze,160,2013-05-18 17:35:00
12:55 PM,82.4,75.2,79,29.80,7.0,SSE,6.9,-,N/A,,Clear,150,2013-05-18 17:55:00
1:15 PM,82.4,77.0,84,29.81,5.0,SSE,8.1,16.1,N/A,,Haze,150,2013-05-18 18:15:00
1:35 PM,80.6,75.2,84,29.78,5.0,SE,10.4,-,N/A,,Haze,130,2013-05-18 18:35:00
1:55 PM,80.6,75.2,84,29.79,5.0,SSE,10.4,-,N/A,,Haze,150,2013-05-18 18:55:00
2:15 PM,80.6,75.2,84,29.79,5.0,SE,8.1,-,N/A,,Haze,130,2013-05-18 19:15:00
2:35 PM,82.4,75.2,79,29.78,7.0,SSE,9.2,16.1,N/A,,Clear,150,2013-05-18 19:35:00
2:55 PM,82.4,75.2,79,29.78,7.0,SSE,13.8,18.4,N/A,,Clear,150,2013-05-18 19:55:00
3:15 PM,84.2,77.0,79,29.77,7.0,SSE,10.4,16.1,N/A,,Clear,150,2013-05-18 20:15:00
3:35 PM,86.0,77.0,74,29.77,7.0,SE,12.7,21.9,N/A,,Clear,140,2013-05-18 20:35:00
3:55 PM,86.0,77.0,74,29.76,7.0,SE,10.4,19.6,N/A,,Clear,140,2013-05-18 20:55:00
4:15 PM,87.8,77.0,70,29.75,7.0,South,12.7,20.7,N/A,,Clear,170,2013-05-18 21:15:00
4:35 PM,87.8,77.0,70,29.75,7.0,SSE,11.5,20.7,N/A,,Clear,160,2013-05-18 21:35:00
4:55 PM,87.8,77.0,70,29.75,7.0,SSE,11.5,19.6,N/A,,Clear,160,2013-05-18 21:55:00
5:15 PM,87.8,77.0,70,29.75,10.0,SSE,10.4,23.0,N/A,,Clear,160,2013-05-18 22:15:00
5:35 PM,87.8,73.4,62,29.74,10.0,South,12.7,21.9,N/A,,Clear,170,2013-05-18 22:35:00
5:55 PM,86.0,73.4,66,29.73,7.0,SSE,9.2,18.4,N/A,,Clear,160,2013-05-18 22:55:00
6:15 PM,86.0,73.4,66,29.72,7.0,SSE,10.4,20.7,N/A,,Clear,150,2013-05-18 23:15:00
6:35 PM,86.0,73.4,66,29.72,7.0,SSE,9.2,-,N/A,,Clear,160,2013-05-18 23:35:00
6:55 PM,82.4,73.4,74,29.72,7.0,SSE,11.5,18.4,N/A,,Clear,160,2013-05-18 23:55:00
7:15 PM,82.4,73.4,74,29.73,7.0,SSE,12.7,18.4,N/A,,Clear,160,2013-05-19 00:15:00
7:35 PM,80.6,73.4,79,29.74,7.0,SSE,9.2,-,N/A,,Clear,160,2013-05-19 00:35:00
7:55 PM,80.6,73.4,79,29.73,7.0,SSE,9.2,-,N/A,,Clear,150,2013-05-19 00:55:00
8:15 PM,78.8,73.4,83,29.71,7.0,SSE,8.1,16.1,N/A,,Clear,150,2013-05-19 01:15:00
8:35 PM,78.8,73.4,83,29.72,7.0,SSE,9.2,-,N/A,,Clear,160,2013-05-19 01:35:00
8:55 PM,78.8,73.4,83,29.72,10.0,SSE,11.5,16.1,N/A,,Clear,160,2013-05-19 01:55:00
9:15 PM,78.8,73.4,83,29.73,10.0,South,9.2,16.1,N/A,,Clear,170,2013-05-19 02:15:00
9:35 PM,78.8,71.6,78,29.75,10.0,South,9.2,17.3,N/A,,Clear,170,2013-05-19 02:35:00
9:55 PM,78.8,73.4,83,29.77,10.0,South,5.8,-,N/A,,Clear,180,2013-05-19 02:55:00
10:15 PM,78.8,71.6,78,29.80,10.0,SSW,6.9,-,N/A,,Scattered Clouds,210,2013-05-19 03:15:00
10:35 PM,78.8,73.4,83,29.80,10.0,South,5.8,-,N/A,,Mostly Cloudy,190,2013-05-19 03:35:00
10:55 PM,73.4,62.6,69,29.83,10.0,WSW,18.4,34.5,N/A,Rain,Light Rain,250,2013-05-19 03:55:00
11:15 PM,69.8,62.6,78,29.82,10.0,WSW,12.7,23.0,N/A,Rain,Light Rain,250,2013-05-19 04:15:00
11:35 PM,66.2,64.4,94,29.84,7.0,South,4.6,-,0.05,Rain,Heavy Rain,190,2013-05-19 04:35:00
11:55 PM,66.2,62.6,88,29.85,7.0,SW,20.7,33.4,0.08,Rain,Rain,230,2013-05-19 04:55:00